This is the latest recevied weather packets stored in our database for station/object JH0KSP-13. If no packets are shown the sender has not sent any weather packets the latest 10 day(s).
| Time | Temp. | Humidity | Pressure | Rain* | Wind** | Luminosity | Snow |
|---|---|---|---|---|---|---|---|
| 1777926415 | 7.22° C | 78% | 1017.7 hPa | 0 mm | - | - | - |
| 1777926009 | 7.22° C | 78% | 1017.5 hPa | 0 mm | - | - | - |
| 1777925409 | 7.22° C | 80% | 1017.2 hPa | 0 mm | - | - | - |
| 1777925216 | 6.11° C | 80% | 1017.2 hPa | 0 mm | - | - | - |
| 1777924017 | 7.22° C | 77% | 1016.6 hPa | 0 mm | - | - | - |
| 1777922816 | 7.22° C | 75% | 1015.6 hPa | 0 mm | - | - | - |
| 1777921615 | 7.22° C | 85% | 1015.2 hPa | 0 mm | - | - | - |
| 1777920416 | 7.22° C | 85% | 1014.8 hPa | 0 mm | - | - | - |
| 1777919217 | 7.22° C | 92% | 1014.6 hPa | 0 mm | - | - | - |
| 1777918016 | 7.22° C | 95% | 1014.3 hPa | 0 mm | - | - | - |
| 1777916817 | 7.22° C | 96% | 1013.9 hPa | 0 mm | - | - | - |
| 1777915809 | 7.22° C | 98% | 1013.6 hPa | 0 mm | - | - | - |
| 1777915615 | 7.78° C | 97% | 1013.4 hPa | 0 mm | - | - | - |
| 1777914417 | 7.78° C | 96% | 1013.1 hPa | 0 mm | - | - | - |
| 1777913217 | 7.78° C | 93% | 1013 hPa | 0 mm | - | - | - |
| 1777912016 | 7.78° C | 91% | 1012.8 hPa | 0 mm | - | - | - |
| 1777910816 | 8.89° C | 89% | 1012.6 hPa | 0 mm | - | - | - |
| 1777909617 | 8.89° C | 89% | 1012.2 hPa | 0 mm | - | - | - |
| 1777908416 | 8.89° C | 87% | 1012.2 hPa | 0 mm | - | - | - |
| 1777907217 | 8.89° C | 87% | 1012 hPa | 0 mm | - | - | - |
| 1777906015 | 8.89° C | 82% | 1011.7 hPa | 0 mm | - | - | - |
| 1777904816 | 10° C | 81% | 1011.6 hPa | 0 mm | - | - | - |
| 1777903617 | 10° C | 79% | 1011.1 hPa | 0 mm | - | - | - |
| 1777903209 | 11.11° C | 77% | 1011 hPa | 0 mm | - | - | - |
| 1777902416 | 11.11° C | 77% | 1011 hPa | 0 mm | - | - | - |
* Rain latest hour (hover to see other rain measurements)
** Current wind speed in m/s (hover to see current wind gust speed)